| time (UTC) | temp F | wind direction | speed MPH | gust MPH | rain 1hr in | rain 24hr in | rain mn in | humidity % | barometer mb |
| 20260831203336 | 100 | 203 | 7.0 | 10.0 | 0.00 | 0.00 | 0.00 | 41 | 1012.7 |
| 20260831202316 | 100 | 203 | 3.0 | 7.0 | 0.00 | 0.00 | 0.00 | 43 | 1012.7 |
| 20260831201316 | 99 | 225 | 5.0 | 9.0 | 0.00 | 0.00 | 0.00 | 42 | 1012.7 |
| 20260831200316 | 99 | 338 | 2.0 | 5.0 | 0.00 | 0.00 | 0.00 | 43 | 1012.6 |
| 20260831195917 | 100 | 270 | 4.0 | 6.0 | 0.00 | 0.00 | 0.00 | 44 | 1012.6 |
| 20260831195740 | 100 | 225 | 2.0 | 2.0 | 0.00 | 0.00 | 0.00 | 45 | 1012.6 |
| 20260831195658 | 99 | 0.0 | 0.0 | 0.00 | 0.00 | 0.00 | 42 | 1012.6 | |
| 20260831195534 | 99 | 0.0 | 0.0 | 0.00 | 0.00 | 0.00 | 42 | 1012.6 | |
| 20260831195419 | 99 | 0.0 | 0.0 | 0.00 | 0.00 | 0.00 | 42 | 1012.6 | |
| 20260831195255 | 99 | 0.0 | 0.0 | 0.00 | 0.00 | 0.00 | 42 | 1012.6 | |
| 20260831195120 | 99 | 203 | 6.0 | 8.0 | 0.00 | 0.00 | 0.00 | 42 | 1012.7 |
| 20260831194223 | 99 | 158 | 4.0 | 7.0 | 0.00 | 0.00 | 0.00 | 44 | 1012.8 |
| 20260831193918 | 99 | 180 | 6.0 | 9.0 | 0.00 | 0.00 | 0.00 | 44 | 1012.8 |
| 20260831193902 | 99 | 203 | 3.0 | 5.0 | 0.00 | 0.00 | 0.00 | 46 | 1012.9 |
| 20260831190817 | 98 | 270 | 3.0 | 6.0 | 0.00 | 0.00 | 0.00 | 44 | 1013.0 |
| 20260831185838 | 99 | 270 | 4.0 | 6.0 | 0.00 | 0.00 | 0.00 | 43 | 1013.2 |
| 20260831185237 | 99 | 225 | 7.0 | 11.0 | 0.00 | 0.00 | 0.00 | 43 | 1013.2 |
| 20260831184524 | 98 | 203 | 8.0 | 12.0 | 0.00 | 0.00 | 0.00 | 44 | 1013.3 |
| 20260831183710 | 99 | 0.0 | 0.0 | 0.00 | 0.00 | 0.00 | |||
| 20260831183608 | 99 | 0.0 | 0.0 | 0.00 | 0.00 | 0.00 | |||
| 20260831183339 | 99 | 248 | 2.0 | 2.0 | 0.00 | 0.00 | 0.00 | ||
| 20260831183219 | 0 | 0.0 | 0.0 | 0.00 | 0.00 | 0.00 | |||
| 20260831183021 | 0 | 0.0 | 0.0 | 0.00 | 0.00 | 0.00 |